Weather History for KAFK - November, 2011

Change the Weather History Date:

Wednesday, November 9, 2011

  Actual Average (KSDA) Record (KSDA)
Temperature  
Mean Temperature 41 °F -  
Max Temperature 50 °F 52 °F 80 °F (1999)
Min Temperature 32 °F 32 °F 5 °F (1991)
Degree Days  
Heating Degree Days 24    
Moisture  
Dew Point 31 °F    
Average Humidity 71    
Maximum Humidity 93    
Minimum Humidity 40    
Precipitation  
Precipitation 0.00 in - - ()
Sea Level Pressure  
Sea Level Pressure 30.17 in    
Wind  
Wind Speed 14 mph (NW)    
Max Wind Speed 24 mph    
Max Gust Speed 32 mph    
Visibility 10 miles    
Events Rain    
Averages and records for this station are not official NWS values.
T = Trace of Precipitation, MM = Missing Value Source: NWS Daily Summary

Daily Weather History Graph

Daily Weather History Graph

Search for Another Location

Airport or City:

Trip Planner

Search our weather history database for the weather conditions in past years. The results will help you decide how hot, cold, wet, or windy it might be!

Date:

Astronomy

Nov. 09, 2011 Rise Set
Actual Time 7:02 AM CST 5:11 PM CST
Civil Twilight 6:33 AM CST 5:40 PM CST
Nautical Twilight 6:01 AM CST 6:12 PM CST
Astronomical Twilight 5:29 AM CST 6:44 PM CST
Moon 4:23 PM CST (11/9) 5:59 AM CST (11/9)
Length of Visible Light 11h 06m
Length of Day
10h 08m
Waxing Gibbous, 99% of the Moon is Illuminated
Nov 9
Waxing Gibbous
Nov 10
Full
Nov 18
Last Quarter
Nov 25
New
Dec 2
First Quarter

Hourly Weather History & Observations

Time (CST) Temp. Windchill Dew Point Humidity Pressure Visibility Wind Dir Wind Speed Gust Speed Precip Events Conditions
12:15 AM 37.4 °F 28.2 °F 35.6 °F 93% 30.05 in 10.0 mi North 16.1 mph 23.0 mph N/A Rain Rain
12:35 AM 37.4 °F 28.5 °F 35.6 °F 93% 30.05 in 10.0 mi North 15.0 mph 20.7 mph N/A   Drizzle
12:55 AM 37.4 °F 28.2 °F 35.6 °F 93% 30.05 in 10.0 mi NNE 16.1 mph 27.6 mph N/A   Overcast
1:15 AM 37.4 °F 30.8 °F 35.6 °F 93% 30.06 in 10.0 mi North 9.2 mph - N/A   Overcast
1:35 AM 37.4 °F 31.4 °F 35.6 °F 93% 30.06 in 10.0 mi NNW 8.1 mph - N/A   Overcast
1:55 AM 37.4 °F 29.3 °F 35.6 °F 93% 30.06 in 10.0 mi NNW 12.7 mph 16.1 mph N/A   Overcast
2:15 AM 37.4 °F 29.3 °F 33.8 °F 87% 30.06 in 10.0 mi NNW 12.7 mph - N/A   Overcast
2:35 AM 37.4 °F 30.3 °F 33.8 °F 87% 30.07 in 10.0 mi NNW 10.4 mph - N/A   Overcast
2:55 AM 37.4 °F 29.3 °F 32.0 °F 81% 30.07 in 10.0 mi NNW 12.7 mph - N/A   Scattered Clouds
3:15 AM 37.4 °F 28.9 °F 32.0 °F 81% 30.08 in 10.0 mi NNW 13.8 mph - N/A   Clear
3:35 AM 37.4 °F 28.5 °F 32.0 °F 81% 30.08 in 10.0 mi NNW 15.0 mph 18.4 mph N/A   Clear
4:15 AM 35.6 °F 26.6 °F 32.0 °F 87% 30.10 in 10.0 mi NNW 13.8 mph - N/A   Clear
4:35 AM 35.6 °F 26.6 °F 32.0 °F 87% 30.11 in 10.0 mi NNW 13.8 mph - N/A   Clear
4:55 AM 35.6 °F 26.6 °F 32.0 °F 87% 30.11 in 10.0 mi NNW 13.8 mph - N/A   Clear
5:15 AM 35.6 °F 27.1 °F 30.2 °F 81% 30.11 in 10.0 mi NNW 12.7 mph - N/A   Clear
5:35 AM 33.8 °F 25.3 °F 30.2 °F 87% 30.12 in 10.0 mi NW 11.5 mph - N/A   Clear
5:55 AM 33.8 °F 25.3 °F 32.0 °F 93% 30.13 in 10.0 mi NW 11.5 mph - N/A   Clear
6:15 AM 33.8 °F 24.8 °F 30.2 °F 87% 30.13 in 10.0 mi NW 12.7 mph - N/A   Clear
6:35 AM 33.8 °F 25.3 °F 30.2 °F 87% 30.14 in 10.0 mi NW 11.5 mph - N/A   Clear
6:55 AM 33.8 °F 26.4 °F 30.2 °F 87% 30.15 in 10.0 mi NW 9.2 mph - N/A   Clear
7:15 AM 32.0 °F 23.0 °F 30.2 °F 93% 30.16 in 10.0 mi NW 11.5 mph - N/A   Clear
7:35 AM 33.8 °F 26.4 °F 30.2 °F 87% 30.17 in 10.0 mi NW 9.2 mph - N/A   Clear
7:55 AM 33.8 °F 25.3 °F 30.2 °F 87% 30.18 in 10.0 mi NW 11.5 mph - N/A   Clear
8:15 AM 33.8 °F 24.3 °F 30.2 °F 87% 30.19 in 10.0 mi WNW 13.8 mph - N/A   Clear
8:35 AM 35.6 °F 25.9 °F 30.2 °F 81% 30.20 in 10.0 mi NW 16.1 mph - N/A   Clear
8:55 AM 35.6 °F 25.9 °F 32.0 °F 87% 30.20 in 10.0 mi WNW 16.1 mph 20.7 mph N/A   Clear
9:15 AM 37.4 °F 28.5 °F 32.0 °F 81% 30.20 in 10.0 mi NW 15.0 mph 20.7 mph N/A   Clear
9:35 AM 39.2 °F 30.8 °F 32.0 °F 75% 30.21 in 10.0 mi NW 15.0 mph 20.7 mph N/A   Clear
9:55 AM 41.0 °F 32.8 °F 32.0 °F 70% 30.22 in 10.0 mi NW 16.1 mph 21.9 mph N/A   Clear
10:35 AM 42.8 °F 35.1 °F 32.0 °F 66% 30.22 in 10.0 mi NNW 16.1 mph 23.0 mph N/A   Clear
10:55 AM 44.6 °F 37.2 °F 32.0 °F 61% 30.23 in 10.0 mi NW 17.3 mph - N/A   Clear
11:15 AM 44.6 °F 36.9 °F 32.0 °F 61% 30.23 in 10.0 mi NNW 18.4 mph 25.3 mph N/A   Clear
11:35 AM 46.4 °F 39.2 °F 32.0 °F 57% 30.22 in 10.0 mi NNW 18.4 mph - N/A   Clear
11:55 AM 46.4 °F 39.0 °F 33.8 °F 62% 30.22 in 10.0 mi NW 19.6 mph 27.6 mph N/A   Clear
12:15 PM 46.4 °F 39.2 °F 32.0 °F 57% 30.22 in 10.0 mi NNW 18.4 mph 27.6 mph N/A   Clear
12:35 PM 46.4 °F 38.3 °F 32.0 °F 57% 30.22 in 10.0 mi NW 23.0 mph 29.9 mph N/A   Clear
12:55 PM 48.2 °F - 32.0 °F 54% 30.22 in 10.0 mi NW 24.2 mph 32.2 mph N/A   Clear
1:15 PM 48.2 °F - 32.0 °F 54% 30.22 in 10.0 mi NW 17.3 mph 26.5 mph N/A   Clear
1:35 PM 50.0 °F - 30.2 °F 47% 30.22 in 10.0 mi NW 19.6 mph 27.6 mph N/A   Clear
1:55 PM 48.2 °F - 30.2 °F 50% 30.22 in 10.0 mi NNW 16.1 mph 31.1 mph N/A   Clear
2:35 PM 50.0 °F - 32.0 °F 50% 30.23 in 10.0 mi NNW 15.0 mph 23.0 mph N/A   Clear
2:55 PM 50.0 °F - 28.4 °F 43% 30.23 in 10.0 mi NW 21.9 mph 26.5 mph N/A   Clear
3:15 PM 50.0 °F - 26.6 °F 40% 30.23 in 10.0 mi NW 17.3 mph 25.3 mph N/A   Clear
3:35 PM 48.2 °F - 26.6 °F 43% 30.23 in 10.0 mi NW 19.6 mph 29.9 mph N/A   Clear
3:55 PM 48.2 °F - 26.6 °F 43% 30.24 in 10.0 mi NW 17.3 mph 26.5 mph N/A   Clear
4:15 PM 46.4 °F 41.1 °F 26.6 °F 46% 30.24 in 10.0 mi NW 11.5 mph 23.0 mph N/A   Clear
4:35 PM 44.6 °F 37.2 °F 23.0 °F 43% 30.24 in 10.0 mi NW 17.3 mph - N/A   Clear
4:55 PM 44.6 °F 38.1 °F 23.0 °F 43% 30.25 in 10.0 mi NW 13.8 mph 23.0 mph N/A   Clear
5:15 PM 42.8 °F 36.2 °F 23.0 °F 46% 30.26 in 10.0 mi NW 12.7 mph - N/A   Clear
5:35 PM 42.8 °F 35.4 °F 23.0 °F 46% 30.26 in 10.0 mi NW 15.0 mph 19.6 mph N/A   Clear
5:55 PM 41.0 °F 33.1 °F 21.2 °F 45% 30.27 in 10.0 mi NW 15.0 mph - N/A   Clear
6:15 PM 37.4 °F 31.4 °F 23.0 °F 56% 30.27 in 10.0 mi WNW 8.1 mph - N/A   Clear
6:35 PM 37.4 °F 30.8 °F 23.0 °F 56% 30.27 in 10.0 mi WNW 9.2 mph - N/A   Clear
6:55 PM 37.4 °F 29.8 °F 23.0 °F 56% 30.27 in 10.0 mi WNW 11.5 mph - N/A   Clear
7:15 PM 37.4 °F 29.8 °F 23.0 °F 56% 30.27 in 10.0 mi WNW 11.5 mph - N/A   Clear
7:35 PM 37.4 °F 29.8 °F 23.0 °F 56% 30.27 in 10.0 mi WNW 11.5 mph - N/A   Clear
8:15 PM 35.6 °F 28.0 °F 23.0 °F 60% 30.27 in 10.0 mi West 10.4 mph - N/A   Clear
8:35 PM 35.6 °F 28.0 °F 23.0 °F 60% 30.27 in 10.0 mi West 10.4 mph - N/A   Clear
8:55 PM 35.6 °F 28.0 °F 23.0 °F 60% 30.27 in 10.0 mi West 10.4 mph - N/A   Clear
9:15 PM 33.8 °F 25.3 °F 23.0 °F 65% 30.27 in 10.0 mi West 11.5 mph - N/A   Clear
9:35 PM 33.8 °F 25.3 °F 24.8 °F 70% 30.27 in 10.0 mi West 11.5 mph - N/A   Clear
9:55 PM 33.8 °F 25.3 °F 24.8 °F 70% 30.27 in 10.0 mi West 11.5 mph - N/A   Clear
10:15 PM 33.8 °F 25.3 °F 24.8 °F 70% 30.27 in 10.0 mi West 11.5 mph - N/A   Clear
10:35 PM 33.8 °F 25.3 °F 23.0 °F 65% 30.26 in 10.0 mi West 11.5 mph - N/A   Clear
10:55 PM 33.8 °F 25.3 °F 23.0 °F 65% 30.26 in 10.0 mi West 11.5 mph - N/A   Clear
11:15 PM 33.8 °F 25.3 °F 23.0 °F 65% 30.27 in 10.0 mi West 11.5 mph - N/A   Clear
11:35 PM 32.0 °F 23.0 °F 23.0 °F 69% 30.27 in 10.0 mi West 11.5 mph - N/A   Clear
11:55 PM 32.0 °F 24.2 °F 23.0 °F 69% 30.27 in 10.0 mi WNW 9.2 mph - N/A   Clear